2020-063G

Last updated on Sun Dec 26 2021 00:02:07 GMT+0000 (Coordinated Universal Time)

1 46395U 20063G 21359.49894126 .06112238 12491-4 12204-3 0 9997 2 46395 50.1897 5.1945 0000118 273.1459 87.2950 16.47338526 75844

Satellite not in orbit